Location: Unspecified
(0.0000°N, 0.0000°E)
Time: 09:18:19
(UTC+00:00)

S-56A Canister/Altair - Pass Details

Date: 17 December 2018
Orbit: 633 x 2500 km, 38.9° (Epoch: 17 January)

Event Time Altitude Azimuth Distance (km) Brightness Sun altitude
Rises 23:56:02 0° 252° (WSW) 3,160 - -66.7°
Reaches altitude 10° 23:58:23 10° 263° (W) 2,379 - -66.6°
Maximum altitude 00:03:19 32° 326° (NW) 1,622 - -66.6°
Drops below altitude 10° 00:10:08 10° 26° (NNE) 3,320 - -66.4°
Sets 00:14:04 0° 35° (NE) 4,634 - -66.2°
